Year,Month,Day,Hour,Minute,Value (Times are PST for temperature in C)
2010,07,07,00,00,15.40
2010,07,07,00,01,15.40
2010,07,07,00,02,15.40
2010,07,07,00,03,15.40
2010,07,07,00,04,15.40
2010,07,07,00,05,15.40
2010,07,07,00,06,15.40
2010,07,07,00,07,15.30
2010,07,07,00,08,15.30
2010,07,07,00,09,15.30
2010,07,07,00,10,15.30
2010,07,07,00,11,15.30
2010,07,07,00,12,15.30
2010,07,07,00,13,15.30
2010,07,07,00,14,15.20
2010,07,07,00,15,15.20
2010,07,07,00,16,15.20
2010,07,07,00,17,15.10
2010,07,07,00,18,15.10
2010,07,07,00,19,15.10
2010,07,07,00,20,15.00
2010,07,07,00,21,15.00
2010,07,07,00,22,15.00
2010,07,07,00,23,14.90
2010,07,07,00,24,14.90
2010,07,07,00,25,14.90
2010,07,07,00,26,14.90
2010,07,07,00,27,14.90
2010,07,07,00,28,14.80
2010,07,07,00,29,14.80
2010,07,07,00,30,14.80
2010,07,07,00,31,14.80
2010,07,07,00,32,14.80
2010,07,07,00,33,14.70
2010,07,07,00,34,14.70
2010,07,07,00,35,14.70
2010,07,07,00,36,14.60
2010,07,07,00,37,14.60
2010,07,07,00,38,14.60
2010,07,07,00,39,14.50
2010,07,07,00,40,14.50
2010,07,07,00,41,14.50
2010,07,07,00,42,14.50
2010,07,07,00,43,14.40
2010,07,07,00,44,14.40
2010,07,07,00,45,14.40
2010,07,07,00,46,14.40
2010,07,07,00,47,14.30
2010,07,07,00,48,14.30
2010,07,07,00,49,14.30
2010,07,07,00,50,14.30
2010,07,07,00,51,14.20
2010,07,07,00,52,14.20
2010,07,07,00,53,14.20
2010,07,07,00,54,14.20
2010,07,07,00,55,14.20
2010,07,07,00,56,14.20
2010,07,07,00,57,14.20
2010,07,07,00,58,14.20
2010,07,07,00,59,14.20
2010,07,07,01,00,14.20
2010,07,07,01,01,14.20
2010,07,07,01,02,14.20
2010,07,07,01,03,14.20
2010,07,07,01,04,14.20
2010,07,07,01,05,14.20
2010,07,07,01,06,14.20
2010,07,07,01,07,14.30
2010,07,07,01,08,14.30
2010,07,07,01,09,14.30
2010,07,07,01,10,14.30
2010,07,07,01,11,14.30
2010,07,07,01,12,14.30
2010,07,07,01,13,14.30
2010,07,07,01,14,14.30
2010,07,07,01,15,14.30
2010,07,07,01,16,14.30
2010,07,07,01,17,14.30
2010,07,07,01,18,14.30
2010,07,07,01,19,14.30
2010,07,07,01,20,14.30
2010,07,07,01,21,14.30
2010,07,07,01,22,14.30
2010,07,07,01,23,14.30
2010,07,07,01,24,14.30
2010,07,07,01,25,14.30
2010,07,07,01,26,14.30
2010,07,07,01,27,14.30
2010,07,07,01,28,14.30
2010,07,07,01,29,14.30
2010,07,07,01,30,14.30
2010,07,07,01,31,14.40
2010,07,07,01,32,14.40
2010,07,07,01,33,14.40
2010,07,07,01,34,14.40
2010,07,07,01,35,14.50
2010,07,07,01,36,14.50
2010,07,07,01,37,14.50
2010,07,07,01,38,14.50
2010,07,07,01,39,14.60
2010,07,07,01,40,14.60
2010,07,07,01,41,14.60
2010,07,07,01,42,14.70
2010,07,07,01,43,14.70
2010,07,07,01,44,14.80
2010,07,07,01,45,14.80
2010,07,07,01,46,14.80
2010,07,07,01,47,14.80
2010,07,07,01,48,14.80
2010,07,07,01,49,14.80
2010,07,07,01,50,14.80
2010,07,07,01,51,14.80
2010,07,07,01,52,14.80
2010,07,07,01,53,14.80
2010,07,07,01,54,14.80
2010,07,07,01,55,14.80
2010,07,07,01,56,14.70
2010,07,07,01,57,14.70
2010,07,07,01,58,14.70
2010,07,07,01,59,14.60
2010,07,07,02,00,14.60
2010,07,07,02,01,14.50
2010,07,07,02,02,14.50
2010,07,07,02,03,14.40
2010,07,07,02,04,14.30
2010,07,07,02,05,14.20
2010,07,07,02,06,14.20
2010,07,07,02,07,14.20
2010,07,07,02,08,14.10
2010,07,07,02,09,14.10
2010,07,07,02,10,14.00
2010,07,07,02,11,14.00
2010,07,07,02,12,13.90
2010,07,07,02,13,13.90
2010,07,07,02,14,13.80
2010,07,07,02,15,13.80
2010,07,07,02,16,13.80
2010,07,07,02,17,13.70
2010,07,07,02,18,13.70
2010,07,07,02,19,13.70
2010,07,07,02,20,13.70
2010,07,07,02,21,13.70
2010,07,07,02,22,13.60
2010,07,07,02,23,13.60
2010,07,07,02,24,13.60
2010,07,07,02,25,13.60
2010,07,07,02,26,13.50
2010,07,07,02,27,13.50
2010,07,07,02,28,13.50
2010,07,07,02,29,13.50
2010,07,07,02,30,13.50
2010,07,07,02,31,13.50
2010,07,07,02,32,13.50
2010,07,07,02,33,13.50
2010,07,07,02,34,13.50
2010,07,07,02,35,13.50
2010,07,07,02,36,13.50
2010,07,07,02,37,13.50
2010,07,07,02,38,13.50
2010,07,07,02,39,13.50
2010,07,07,02,40,13.50
2010,07,07,02,41,13.50
2010,07,07,02,42,13.50
2010,07,07,02,43,13.50
2010,07,07,02,44,13.50
2010,07,07,02,45,13.50
2010,07,07,02,46,13.50
2010,07,07,02,47,13.50
2010,07,07,02,48,13.50
2010,07,07,02,49,13.50
2010,07,07,02,50,13.50
2010,07,07,02,51,13.50
2010,07,07,02,52,13.40
2010,07,07,02,53,13.40
2010,07,07,02,54,13.40
2010,07,07,02,55,13.40
2010,07,07,02,56,13.40
2010,07,07,02,57,13.30
2010,07,07,02,58,13.30
2010,07,07,02,59,13.30
2010,07,07,03,00,13.30
2010,07,07,03,01,13.30
2010,07,07,03,02,13.30
2010,07,07,03,03,13.30
2010,07,07,03,04,13.30
2010,07,07,03,05,13.30
2010,07,07,03,06,13.30
2010,07,07,03,07,13.20
2010,07,07,03,08,13.20
2010,07,07,03,09,13.20
2010,07,07,03,10,13.20
2010,07,07,03,11,13.20
2010,07,07,03,12,13.20
2010,07,07,03,13,13.20
2010,07,07,03,14,13.20
2010,07,07,03,15,13.10
2010,07,07,03,16,13.10
2010,07,07,03,17,13.10
2010,07,07,03,18,13.10
2010,07,07,03,19,13.10
2010,07,07,03,20,13.00
2010,07,07,03,21,13.00
2010,07,07,03,22,13.00
2010,07,07,03,23,13.00
2010,07,07,03,24,12.90
2010,07,07,03,25,12.90
2010,07,07,03,26,12.90
2010,07,07,03,27,12.90
2010,07,07,03,28,12.90
2010,07,07,03,29,12.80
2010,07,07,03,30,12.80
2010,07,07,03,31,12.80
2010,07,07,03,32,12.80
2010,07,07,03,33,12.80
2010,07,07,03,34,12.70
2010,07,07,03,35,12.70
2010,07,07,03,36,12.70
2010,07,07,03,37,12.70
2010,07,07,03,38,12.60
2010,07,07,03,39,12.60
2010,07,07,03,40,12.60
2010,07,07,03,41,12.60
2010,07,07,03,42,12.60
2010,07,07,03,43,12.50
2010,07,07,03,44,12.50
2010,07,07,03,45,12.50
2010,07,07,03,46,12.50
2010,07,07,03,47,12.60
2010,07,07,03,48,12.60
2010,07,07,03,49,12.60
2010,07,07,03,50,12.60
2010,07,07,03,51,12.60
2010,07,07,03,52,12.60
2010,07,07,03,53,12.60
2010,07,07,03,54,12.60
2010,07,07,03,55,12.60
2010,07,07,03,56,12.60
2010,07,07,03,57,12.60
2010,07,07,03,58,12.60
2010,07,07,03,59,12.60
2010,07,07,04,00,12.60
2010,07,07,04,01,12.70
2010,07,07,04,02,12.70
2010,07,07,04,03,12.70
2010,07,07,04,04,12.60
2010,07,07,04,05,12.60
2010,07,07,04,06,12.60
2010,07,07,04,07,12.60
2010,07,07,04,08,12.60
2010,07,07,04,09,12.60
2010,07,07,04,10,12.60
2010,07,07,04,11,12.60
2010,07,07,04,12,12.60
2010,07,07,04,13,12.60
2010,07,07,04,14,12.60
2010,07,07,04,15,12.60
2010,07,07,04,16,12.60
2010,07,07,04,17,12.60
2010,07,07,04,18,12.50
2010,07,07,04,19,12.50
2010,07,07,04,20,12.50
2010,07,07,04,21,12.50
2010,07,07,04,22,12.50
2010,07,07,04,23,12.50
2010,07,07,04,24,12.50
2010,07,07,04,25,12.60
2010,07,07,04,26,12.60
2010,07,07,04,27,12.60
2010,07,07,04,28,12.60
2010,07,07,04,29,12.70
2010,07,07,04,30,12.70
2010,07,07,04,31,12.70
2010,07,07,04,32,12.70
2010,07,07,04,33,12.80
2010,07,07,04,34,12.80
2010,07,07,04,35,12.80
2010,07,07,04,36,12.80
2010,07,07,04,37,12.80
2010,07,07,04,38,12.80
2010,07,07,04,39,12.80
2010,07,07,04,40,12.80
2010,07,07,04,41,12.80
2010,07,07,04,42,12.70
2010,07,07,04,43,12.70
2010,07,07,04,44,12.70
2010,07,07,04,45,12.70
2010,07,07,04,46,12.70
2010,07,07,04,47,12.70
2010,07,07,04,48,12.70
2010,07,07,04,49,12.70
2010,07,07,04,50,12.70
2010,07,07,04,51,12.70
2010,07,07,04,52,12.70
2010,07,07,04,53,12.70
2010,07,07,04,54,12.60
2010,07,07,04,55,12.60
2010,07,07,04,56,12.60
2010,07,07,04,57,12.60
2010,07,07,04,58,12.50
2010,07,07,04,59,12.50
2010,07,07,05,00,12.50
2010,07,07,05,01,12.50
2010,07,07,05,02,12.40
2010,07,07,05,03,12.40
2010,07,07,05,04,12.30
2010,07,07,05,05,12.30
2010,07,07,05,06,12.30
2010,07,07,05,07,12.30
2010,07,07,05,08,12.20
2010,07,07,05,09,12.20
2010,07,07,05,10,12.20
2010,07,07,05,11,12.20
2010,07,07,05,12,12.30
2010,07,07,05,13,12.30
2010,07,07,05,14,12.30
2010,07,07,05,15,12.30
2010,07,07,05,16,12.30
2010,07,07,05,17,12.30
2010,07,07,05,18,12.30
2010,07,07,05,19,12.40
2010,07,07,05,20,12.40
2010,07,07,05,21,12.40
2010,07,07,05,22,12.40
2010,07,07,05,23,12.50
2010,07,07,05,24,12.50
2010,07,07,05,25,12.50
2010,07,07,05,26,12.60
2010,07,07,05,27,12.60
2010,07,07,05,28,12.70
2010,07,07,05,29,12.70
2010,07,07,05,30,12.70
2010,07,07,05,31,12.80
2010,07,07,05,32,12.80
2010,07,07,05,33,12.80
2010,07,07,05,34,12.90
2010,07,07,05,35,12.90
2010,07,07,05,36,13.00
2010,07,07,05,37,13.00
2010,07,07,05,38,13.10
2010,07,07,05,39,13.10
2010,07,07,05,40,13.20
2010,07,07,05,41,13.30
2010,07,07,05,42,13.30
2010,07,07,05,43,13.30
2010,07,07,05,44,13.40
2010,07,07,05,45,13.50
2010,07,07,05,46,13.50
2010,07,07,05,47,13.60
2010,07,07,05,48,13.60
2010,07,07,05,49,13.60
2010,07,07,05,50,13.70
2010,07,07,05,51,13.70
2010,07,07,05,52,13.70
2010,07,07,05,53,13.80
2010,07,07,05,54,13.90
2010,07,07,05,55,13.90
2010,07,07,05,56,13.90
2010,07,07,05,57,14.00
2010,07,07,05,58,14.00
2010,07,07,05,59,14.10
2010,07,07,06,00,14.10
2010,07,07,06,01,14.20
2010,07,07,06,02,14.20
2010,07,07,06,03,14.20
2010,07,07,06,04,14.20
2010,07,07,06,05,14.20
2010,07,07,06,06,14.30
2010,07,07,06,07,14.30
2010,07,07,06,08,14.30
2010,07,07,06,09,14.40
2010,07,07,06,10,14.40
2010,07,07,06,11,14.40
2010,07,07,06,12,14.50
2010,07,07,06,13,14.50
2010,07,07,06,14,14.50
2010,07,07,06,15,14.60
2010,07,07,06,16,14.60
2010,07,07,06,17,14.60
2010,07,07,06,18,14.70
2010,07,07,06,19,14.70
2010,07,07,06,20,14.80
2010,07,07,06,21,14.80
2010,07,07,06,22,14.80
2010,07,07,06,23,14.90
2010,07,07,06,24,15.00
2010,07,07,06,25,15.00
2010,07,07,06,26,15.10
2010,07,07,06,27,15.20
2010,07,07,06,28,15.20
2010,07,07,06,29,15.30
2010,07,07,06,30,15.30
2010,07,07,06,31,15.40
2010,07,07,06,32,15.50
2010,07,07,06,33,15.60
2010,07,07,06,34,15.60
2010,07,07,06,35,15.70
2010,07,07,06,36,15.80
2010,07,07,06,37,15.80
2010,07,07,06,38,15.90
2010,07,07,06,39,16.10
2010,07,07,06,40,16.10
2010,07,07,06,41,16.20
2010,07,07,06,42,16.30
2010,07,07,06,43,16.30
2010,07,07,06,44,16.40
2010,07,07,06,45,16.40
2010,07,07,06,46,16.50
2010,07,07,06,47,16.60
2010,07,07,06,48,16.70
2010,07,07,06,49,16.80
2010,07,07,06,50,16.90
2010,07,07,06,51,16.90
2010,07,07,06,52,17.00
2010,07,07,06,53,17.00
2010,07,07,06,54,17.10
2010,07,07,06,55,17.10
2010,07,07,06,56,17.20
2010,07,07,06,57,17.20
2010,07,07,06,58,17.30
2010,07,07,06,59,17.30
2010,07,07,07,00,17.30
2010,07,07,07,01,17.40
2010,07,07,07,02,17.40
2010,07,07,07,03,17.50
2010,07,07,07,04,17.60
2010,07,07,07,05,17.60
2010,07,07,07,06,17.60
2010,07,07,07,07,17.70
2010,07,07,07,08,17.70
2010,07,07,07,09,17.80
2010,07,07,07,10,17.80
2010,07,07,07,11,17.90
2010,07,07,07,12,17.90
2010,07,07,07,13,17.90
2010,07,07,07,14,17.90
2010,07,07,07,15,17.90
2010,07,07,07,16,18.00
2010,07,07,07,17,18.10
2010,07,07,07,18,18.10
2010,07,07,07,19,18.10
2010,07,07,07,20,18.10
2010,07,07,07,21,18.10
2010,07,07,07,22,18.20
2010,07,07,07,23,18.20
2010,07,07,07,24,18.20
2010,07,07,07,25,18.30
2010,07,07,07,26,18.40
2010,07,07,07,27,18.50
2010,07,07,07,28,18.60
2010,07,07,07,29,18.70
2010,07,07,07,30,18.80
2010,07,07,07,31,18.90
2010,07,07,07,32,18.90
2010,07,07,07,33,19.00
2010,07,07,07,34,19.10
2010,07,07,07,35,19.10
2010,07,07,07,36,19.20
2010,07,07,07,37,19.30
2010,07,07,07,38,19.40
2010,07,07,07,39,19.40
2010,07,07,07,40,19.50
2010,07,07,07,41,19.60
2010,07,07,07,42,19.60
2010,07,07,07,43,19.70
2010,07,07,07,44,19.70
2010,07,07,07,45,19.80
2010,07,07,07,46,19.80
2010,07,07,07,47,19.90
2010,07,07,07,48,19.90
2010,07,07,07,49,20.00
2010,07,07,07,50,20.10
2010,07,07,07,51,20.10
2010,07,07,07,52,20.20
2010,07,07,07,53,20.20
2010,07,07,07,54,20.20
2010,07,07,07,55,20.20
2010,07,07,07,56,20.20
2010,07,07,07,57,20.20
2010,07,07,07,58,20.20
2010,07,07,07,59,20.20
2010,07,07,08,00,20.20
2010,07,07,08,01,20.20
2010,07,07,08,02,20.20
2010,07,07,08,03,20.20
2010,07,07,08,04,20.20
2010,07,07,08,05,20.30
2010,07,07,08,06,20.30
2010,07,07,08,07,20.40
2010,07,07,08,08,20.40
2010,07,07,08,09,20.50
2010,07,07,08,10,20.60
2010,07,07,08,11,20.60
2010,07,07,08,12,20.70
2010,07,07,08,13,20.80
2010,07,07,08,14,20.80
2010,07,07,08,15,20.90
2010,07,07,08,16,20.90
2010,07,07,08,17,21.00
2010,07,07,08,18,21.00
2010,07,07,08,19,21.10
2010,07,07,08,20,21.10
2010,07,07,08,21,21.20
2010,07,07,08,22,21.30
2010,07,07,08,23,21.30
2010,07,07,08,24,21.30
2010,07,07,08,25,21.40
2010,07,07,08,26,21.50
2010,07,07,08,27,21.60
2010,07,07,08,28,21.60
2010,07,07,08,29,21.70
2010,07,07,08,30,21.80
2010,07,07,08,31,21.80
2010,07,07,08,32,21.90
2010,07,07,08,33,21.90
2010,07,07,08,34,22.00
2010,07,07,08,35,22.00
2010,07,07,08,36,22.10
2010,07,07,08,37,22.10
2010,07,07,08,38,22.20
2010,07,07,08,39,22.20
2010,07,07,08,40,22.20
2010,07,07,08,41,22.30
2010,07,07,08,42,22.30
2010,07,07,08,43,22.20
2010,07,07,08,44,22.10
2010,07,07,08,45,22.20
2010,07,07,08,46,22.20
2010,07,07,08,47,22.30
2010,07,07,08,48,22.30
2010,07,07,08,49,22.30
2010,07,07,08,50,22.30
2010,07,07,08,51,22.40
2010,07,07,08,52,22.40
2010,07,07,08,53,22.40
2010,07,07,08,54,22.50
2010,07,07,08,55,22.60
2010,07,07,08,56,22.60
2010,07,07,08,57,22.70
2010,07,07,08,58,22.70
2010,07,07,08,59,22.80
2010,07,07,09,00,22.80
2010,07,07,09,01,22.80
2010,07,07,09,02,22.80
2010,07,07,09,03,22.80
2010,07,07,09,04,22.80
2010,07,07,09,05,22.80
2010,07,07,09,06,22.70
2010,07,07,09,07,22.70
2010,07,07,09,08,22.70
2010,07,07,09,09,22.60
2010,07,07,09,10,22.60
2010,07,07,09,11,22.60
2010,07,07,09,12,22.60
2010,07,07,09,13,22.60
2010,07,07,09,14,22.60
2010,07,07,09,15,22.60
2010,07,07,09,16,22.60
2010,07,07,09,17,22.60
2010,07,07,09,18,22.60
2010,07,07,09,19,22.50
2010,07,07,09,20,22.50
2010,07,07,09,21,22.60
2010,07,07,09,22,22.60
2010,07,07,09,23,22.50
2010,07,07,09,24,22.50
2010,07,07,09,25,22.50
2010,07,07,09,26,22.40
2010,07,07,09,27,22.40
2010,07,07,09,28,22.40
2010,07,07,09,29,22.50
2010,07,07,09,30,22.60
2010,07,07,09,31,22.70
2010,07,07,09,32,22.70
2010,07,07,09,33,22.70
2010,07,07,09,34,22.80
2010,07,07,09,35,22.70
2010,07,07,09,36,22.70
2010,07,07,09,37,22.80
2010,07,07,09,38,22.90
2010,07,07,09,39,22.90
2010,07,07,09,40,22.90
2010,07,07,09,41,23.00
2010,07,07,09,42,23.10
2010,07,07,09,43,23.20
2010,07,07,09,44,23.30
2010,07,07,09,45,23.40
2010,07,07,09,46,23.60
2010,07,07,09,47,23.60
2010,07,07,09,48,23.60
2010,07,07,09,49,23.60
2010,07,07,09,50,23.60
2010,07,07,09,51,23.70
2010,07,07,09,52,23.70
2010,07,07,09,53,23.80
2010,07,07,09,54,23.70
2010,07,07,09,55,23.70
2010,07,07,09,56,23.70
2010,07,07,09,57,23.70
2010,07,07,09,58,23.80
2010,07,07,09,59,23.80
2010,07,07,10,00,23.90
2010,07,07,10,01,24.00
2010,07,07,10,02,24.00
2010,07,07,10,03,23.90
2010,07,07,10,04,23.90
2010,07,07,10,05,23.90
2010,07,07,10,06,23.90
2010,07,07,10,07,23.80
2010,07,07,10,08,23.70
2010,07,07,10,09,23.60
2010,07,07,10,10,23.50
2010,07,07,10,11,23.40
2010,07,07,10,12,23.40
2010,07,07,10,13,23.40
2010,07,07,10,14,23.40
2010,07,07,10,15,23.40
2010,07,07,10,16,23.40
2010,07,07,10,17,23.40
2010,07,07,10,18,23.40
2010,07,07,10,19,23.40
2010,07,07,10,20,23.30
2010,07,07,10,21,23.40
2010,07,07,10,22,23.50
2010,07,07,10,23,23.60
2010,07,07,10,24,23.70
2010,07,07,10,25,23.70
2010,07,07,10,26,23.80
2010,07,07,10,27,24.00
2010,07,07,10,28,24.10
2010,07,07,10,29,24.30
2010,07,07,10,30,24.40
2010,07,07,10,31,24.50
2010,07,07,10,32,24.50
2010,07,07,10,33,24.60
2010,07,07,10,34,24.60
2010,07,07,10,35,24.60
2010,07,07,10,36,24.60
2010,07,07,10,37,24.50
2010,07,07,10,38,24.50
2010,07,07,10,39,24.50
2010,07,07,10,40,24.50
2010,07,07,10,41,24.50
2010,07,07,10,42,24.50
2010,07,07,10,43,24.50
2010,07,07,10,44,24.50
2010,07,07,10,45,24.50
2010,07,07,10,46,24.50
2010,07,07,10,47,24.40
2010,07,07,10,48,24.40
2010,07,07,10,49,24.30
2010,07,07,10,50,24.10
2010,07,07,10,51,24.10
2010,07,07,10,52,24.00
2010,07,07,10,53,23.90
2010,07,07,10,54,23.90
2010,07,07,10,55,23.90
2010,07,07,10,56,24.00
2010,07,07,10,57,24.10
2010,07,07,10,58,24.30
2010,07,07,10,59,24.40
2010,07,07,11,00,24.50
2010,07,07,11,01,24.70
2010,07,07,11,02,24.70
2010,07,07,11,03,24.60
2010,07,07,11,04,24.60
2010,07,07,11,05,24.70
2010,07,07,11,06,24.80
2010,07,07,11,07,24.90
2010,07,07,11,08,25.00
2010,07,07,11,09,25.00
2010,07,07,11,10,25.00
2010,07,07,11,11,25.00
2010,07,07,11,12,25.10
2010,07,07,11,13,25.10
2010,07,07,11,14,25.10
2010,07,07,11,15,25.10
2010,07,07,11,16,25.10
2010,07,07,11,17,25.10
2010,07,07,11,18,25.00
2010,07,07,11,19,25.00
2010,07,07,11,20,24.90
2010,07,07,11,21,24.90
2010,07,07,11,22,24.90
2010,07,07,11,23,24.90
2010,07,07,11,24,24.90
2010,07,07,11,25,25.00
2010,07,07,11,26,25.10
2010,07,07,11,27,25.20
2010,07,07,11,28,25.40
2010,07,07,11,29,25.40
2010,07,07,11,30,25.40
2010,07,07,11,31,25.30
2010,07,07,11,32,25.20
2010,07,07,11,33,25.30
2010,07,07,11,34,25.40
2010,07,07,11,35,25.50
2010,07,07,11,36,25.60
2010,07,07,11,37,25.60
2010,07,07,11,38,25.60
2010,07,07,11,39,25.70
2010,07,07,11,40,25.80
2010,07,07,11,41,25.80
2010,07,07,11,42,25.90
2010,07,07,11,43,25.90
2010,07,07,11,44,25.80
2010,07,07,11,45,25.70
2010,07,07,11,46,25.70
2010,07,07,11,47,25.80
2010,07,07,11,48,25.90
2010,07,07,11,49,26.00
2010,07,07,11,50,26.10
2010,07,07,11,51,26.00
2010,07,07,11,52,25.90
2010,07,07,11,53,25.90
2010,07,07,11,54,25.80
2010,07,07,11,55,25.70
2010,07,07,11,56,25.60
2010,07,07,11,57,25.70
2010,07,07,11,58,25.70
2010,07,07,11,59,25.80
2010,07,07,12,00,25.80
2010,07,07,12,01,25.80
2010,07,07,12,02,25.80
2010,07,07,12,03,25.70
2010,07,07,12,04,25.80
2010,07,07,12,05,25.90
2010,07,07,12,06,25.90
2010,07,07,12,07,25.90
2010,07,07,12,08,25.80
2010,07,07,12,09,25.80
2010,07,07,12,10,25.90
2010,07,07,12,11,26.00
2010,07,07,12,12,26.10
2010,07,07,12,13,26.30
2010,07,07,12,14,26.30
2010,07,07,12,15,26.40
2010,07,07,12,16,26.40
2010,07,07,12,17,26.20
2010,07,07,12,18,26.20
2010,07,07,12,19,26.30
2010,07,07,12,20,26.40
2010,07,07,12,21,26.30
2010,07,07,12,22,26.20
2010,07,07,12,23,26.10
2010,07,07,12,24,26.00
2010,07,07,12,25,26.10
2010,07,07,12,26,26.30
2010,07,07,12,27,26.40
2010,07,07,12,28,26.60
2010,07,07,12,29,26.70
2010,07,07,12,30,26.80
2010,07,07,12,31,27.00
2010,07,07,12,32,27.10
2010,07,07,12,33,27.20
2010,07,07,12,34,27.20
2010,07,07,12,35,27.30
2010,07,07,12,36,27.20
2010,07,07,12,37,27.20
2010,07,07,12,38,27.20
2010,07,07,12,39,27.10
2010,07,07,12,40,27.10
2010,07,07,12,41,27.10
2010,07,07,12,42,27.10
2010,07,07,12,43,27.00
2010,07,07,12,44,27.10
2010,07,07,12,45,27.10
2010,07,07,12,46,27.10
2010,07,07,12,47,27.10
2010,07,07,12,48,27.10
2010,07,07,12,49,27.10
2010,07,07,12,50,27.10
2010,07,07,12,51,27.10
2010,07,07,12,52,27.20
2010,07,07,12,53,27.20
2010,07,07,12,54,27.10
2010,07,07,12,55,27.10
2010,07,07,12,56,27.10
2010,07,07,12,57,27.00
2010,07,07,12,58,26.90
2010,07,07,12,59,26.80
2010,07,07,13,00,26.60
2010,07,07,13,01,26.60
2010,07,07,13,02,26.60
2010,07,07,13,03,26.60
2010,07,07,13,04,26.60
2010,07,07,13,05,26.60
2010,07,07,13,06,26.60
2010,07,07,13,07,26.80
2010,07,07,13,08,26.90
2010,07,07,13,09,27.00
2010,07,07,13,10,27.20
2010,07,07,13,11,27.30
2010,07,07,13,12,27.20
2010,07,07,13,13,27.20
2010,07,07,13,14,27.20
2010,07,07,13,15,27.20
2010,07,07,13,16,27.20
2010,07,07,13,17,27.30
2010,07,07,13,18,27.30
2010,07,07,13,19,27.40
2010,07,07,13,20,27.50
2010,07,07,13,21,27.60
2010,07,07,13,22,27.60
2010,07,07,13,23,27.70
2010,07,07,13,24,27.80
2010,07,07,13,25,27.80
2010,07,07,13,26,27.70
2010,07,07,13,27,27.70
2010,07,07,13,28,27.70
2010,07,07,13,29,27.60
2010,07,07,13,30,27.40
2010,07,07,13,31,27.30
2010,07,07,13,32,27.30
2010,07,07,13,33,27.30
2010,07,07,13,34,27.30
2010,07,07,13,35,27.30
2010,07,07,13,36,27.30
2010,07,07,13,37,27.20
2010,07,07,13,38,27.10
2010,07,07,13,39,27.00
2010,07,07,13,40,26.90
2010,07,07,13,41,26.90
2010,07,07,13,42,27.10
2010,07,07,13,43,27.20
2010,07,07,13,44,27.30
2010,07,07,13,45,27.40
2010,07,07,13,46,27.40
2010,07,07,13,47,27.60
2010,07,07,13,48,27.60
2010,07,07,13,49,27.60
2010,07,07,13,50,27.60
2010,07,07,13,51,27.70
2010,07,07,13,52,27.80
2010,07,07,13,53,27.90
2010,07,07,13,54,27.80
2010,07,07,13,55,27.80
2010,07,07,13,56,27.70
2010,07,07,13,57,27.70
2010,07,07,13,58,27.80
2010,07,07,13,59,27.80
2010,07,07,14,00,27.80
2010,07,07,14,01,27.80
2010,07,07,14,02,27.80
2010,07,07,14,03,27.80
2010,07,07,14,04,27.70
2010,07,07,14,05,27.70
2010,07,07,14,06,27.70
2010,07,07,14,07,27.70
2010,07,07,14,08,27.80
2010,07,07,14,09,27.90
2010,07,07,14,10,27.90
2010,07,07,14,11,28.00
2010,07,07,14,12,28.00
2010,07,07,14,13,27.90
2010,07,07,14,14,27.90
2010,07,07,14,15,27.90
2010,07,07,14,16,28.00
2010,07,07,14,17,28.10
2010,07,07,14,18,28.20
2010,07,07,14,19,28.20
2010,07,07,14,20,28.20
2010,07,07,14,21,28.30
2010,07,07,14,22,28.40
2010,07,07,14,23,28.40
2010,07,07,14,24,28.50
2010,07,07,14,25,28.60
2010,07,07,14,26,28.60
2010,07,07,14,27,28.70
2010,07,07,14,28,28.60
2010,07,07,14,29,28.70
2010,07,07,14,30,28.70
2010,07,07,14,31,28.80
2010,07,07,14,32,28.90
2010,07,07,14,33,28.90
2010,07,07,14,34,28.90
2010,07,07,14,35,29.10
2010,07,07,14,36,29.20
2010,07,07,14,37,29.30
2010,07,07,14,38,29.40
2010,07,07,14,39,29.50
2010,07,07,14,40,29.40
2010,07,07,14,41,29.50
2010,07,07,14,42,29.50
2010,07,07,14,43,29.60
2010,07,07,14,44,29.80
2010,07,07,14,45,29.80
2010,07,07,14,46,29.80
2010,07,07,14,47,29.70
2010,07,07,14,48,29.50
2010,07,07,14,49,29.40
2010,07,07,14,50,29.40
2010,07,07,14,51,29.40
2010,07,07,14,52,29.40
2010,07,07,14,53,29.40
2010,07,07,14,54,29.30
2010,07,07,14,55,29.30
2010,07,07,14,56,29.30
2010,07,07,14,57,29.40
2010,07,07,14,58,29.40
2010,07,07,14,59,29.50
2010,07,07,15,00,29.60
2010,07,07,15,01,29.70
2010,07,07,15,02,29.80
2010,07,07,15,03,29.90
2010,07,07,15,04,29.90
2010,07,07,15,05,30.00
2010,07,07,15,06,30.10
2010,07,07,15,07,30.00
2010,07,07,15,08,29.90
2010,07,07,15,09,29.80
2010,07,07,15,10,29.60
2010,07,07,15,11,29.60
2010,07,07,15,12,29.50
2010,07,07,15,13,29.40
2010,07,07,15,14,29.30
2010,07,07,15,15,29.20
2010,07,07,15,16,29.20
2010,07,07,15,17,29.20
2010,07,07,15,18,29.30
2010,07,07,15,19,29.30
2010,07,07,15,20,29.40
2010,07,07,15,21,29.30
2010,07,07,15,22,29.30
2010,07,07,15,23,29.30
2010,07,07,15,24,29.30
2010,07,07,15,25,29.40
2010,07,07,15,26,29.40
2010,07,07,15,27,29.40
2010,07,07,15,28,29.40
2010,07,07,15,29,29.50
2010,07,07,15,30,29.60
2010,07,07,15,31,29.70
2010,07,07,15,32,29.70
2010,07,07,15,33,29.80
2010,07,07,15,34,29.90
2010,07,07,15,35,29.90
2010,07,07,15,36,30.10
2010,07,07,15,37,30.20
2010,07,07,15,38,30.30
2010,07,07,15,39,30.30
2010,07,07,15,40,30.10
2010,07,07,15,41,30.10
2010,07,07,15,42,30.10
2010,07,07,15,43,30.00
2010,07,07,15,44,29.90
2010,07,07,15,45,29.80
2010,07,07,15,46,29.80
2010,07,07,15,47,29.90
2010,07,07,15,48,29.90
2010,07,07,15,49,30.10
2010,07,07,15,50,30.10
2010,07,07,15,51,30.10
2010,07,07,15,52,30.10
2010,07,07,15,53,30.20
2010,07,07,15,54,30.30
2010,07,07,15,55,30.40
2010,07,07,15,56,30.30
2010,07,07,15,57,30.20
2010,07,07,15,58,30.00
2010,07,07,15,59,29.90
2010,07,07,16,00,29.80
2010,07,07,16,01,29.60
2010,07,07,16,02,29.50
2010,07,07,16,03,29.50
2010,07,07,16,04,29.50
2010,07,07,16,05,29.50
2010,07,07,16,06,29.60
2010,07,07,16,07,29.70
2010,07,07,16,08,29.70
2010,07,07,16,09,29.60
2010,07,07,16,10,29.60
2010,07,07,16,11,29.60
2010,07,07,16,12,29.70
2010,07,07,16,13,29.70
2010,07,07,16,14,29.70
2010,07,07,16,15,29.70
2010,07,07,16,16,29.70
2010,07,07,16,17,29.60
2010,07,07,16,18,29.60
2010,07,07,16,19,29.50
2010,07,07,16,20,29.50
2010,07,07,16,21,29.50
2010,07,07,16,22,29.60
2010,07,07,16,23,29.60
2010,07,07,16,24,29.80
2010,07,07,16,25,29.80
2010,07,07,16,26,29.90
2010,07,07,16,27,29.90
2010,07,07,16,28,30.00
2010,07,07,16,29,30.10
2010,07,07,16,30,30.10
2010,07,07,16,31,30.20
2010,07,07,16,32,30.20
2010,07,07,16,33,30.20
2010,07,07,16,34,30.30
2010,07,07,16,35,30.30
2010,07,07,16,36,30.30
2010,07,07,16,37,30.40
2010,07,07,16,38,30.40
2010,07,07,16,39,30.40
2010,07,07,16,40,30.40
2010,07,07,16,41,30.40
2010,07,07,16,42,30.30
2010,07,07,16,43,30.30
2010,07,07,16,44,30.30
2010,07,07,16,45,30.40
2010,07,07,16,46,30.40
2010,07,07,16,47,30.60
2010,07,07,16,48,30.60
2010,07,07,16,49,30.70
2010,07,07,16,50,30.70
2010,07,07,16,51,30.80
2010,07,07,16,52,30.90
2010,07,07,16,53,30.90
2010,07,07,16,54,30.90
2010,07,07,16,55,31.00
2010,07,07,16,56,31.00
2010,07,07,16,57,31.00
2010,07,07,16,58,31.00
2010,07,07,16,59,31.00
2010,07,07,17,00,30.90
2010,07,07,17,01,30.90
2010,07,07,17,02,30.80
2010,07,07,17,03,30.80
2010,07,07,17,04,30.70
2010,07,07,17,05,30.70
2010,07,07,17,06,30.60
2010,07,07,17,07,30.50
2010,07,07,17,08,30.40
2010,07,07,17,09,30.40
2010,07,07,17,10,30.40
2010,07,07,17,11,30.30
2010,07,07,17,12,30.30
2010,07,07,17,13,30.10
2010,07,07,17,14,30.00
2010,07,07,17,15,29.90
2010,07,07,17,16,29.90
2010,07,07,17,17,29.90
2010,07,07,17,18,30.00
2010,07,07,17,19,30.10